• In Deutschland
  • Länderverzeichnis
  • Für 7 Tage
  • Wassertemperatur
  • Satellitenkarten
  • Wetterkarte
  • Widgets
  • user-avatar
    Anmelden

    Stündliche Wetter Namibe

    Heute, 22 April, Sonntag

    Zeit Temperatur Niederschläge Wind Luftdruck Luftfeuchtigkeit
    00:00 +31°C° 0 mm 2 m/S 757 mmHg 66%
    01:00 +31°C° 0 mm 2 m/S 757 mmHg 66%
    02:00 +30°C° 0 mm 2 m/S 757 mmHg 67%
    03:00 +30°C° 0 mm 2 m/S 757 mmHg 67%
    04:00 +30°C° 0 mm 2 m/S 757 mmHg 68%
    05:00 +30°C° 0 mm 2 m/S 757 mmHg 64%
    06:00 +31°C° 0 mm 2 m/S 757 mmHg 61%
    07:00 +31°C° 0 mm 2 m/S 757 mmHg 56%
    08:00 +34°C° 0 mm 2 m/S 757 mmHg 47%
    09:00 +35°C° 0 mm 1 m/S 757 mmHg 39%
    10:00 +37°C° 0 mm 1 m/S 757 mmHg 31%
    11:00 +39°C° 0 mm 2 m/S 757 mmHg 28%
    12:00 +42°C° 0 mm 3 m/S 757 mmHg 26%
    13:00 +43°C° 0 mm 3 m/S 756 mmHg 23%
    14:00 +42°C° 0 mm 4 m/S 756 mmHg 26%
    15:00 +41°C° 0 mm 4 m/S 755 mmHg 29%
    16:00 +41°C° 0 mm 5 m/S 755 mmHg 32%
    17:00 +39°C° 0 mm 5 m/S 755 mmHg 38%
    18:00 +36°C° 0 mm 4 m/S 756 mmHg 44%
    19:00 +34°C° 0 mm 4 m/S 756 mmHg 50%
    20:00 +34°C° 0 mm 3 m/S 756 mmHg 49%
    21:00 +34°C° 0 mm 2 m/S 757 mmHg 49%
    22:00 +34°C° 0 mm 2 m/S 757 mmHg 49%
    23:00 +34°C° 0 mm 2 m/S 757 mmHg 50%

    Morgen, 23 April, Montag

    Zeit Temperatur Niederschläge Wind Luftdruck Luftfeuchtigkeit
    00:00 +32°C° 0 mm 2 m/S 757 mmHg 51%
    01:00 +32°C° 0 mm 1 m/S 757 mmHg 52%
    02:00 +32°C° 0 mm 1 m/S 757 mmHg 52%
    03:00 +31°C° 0 mm 2 m/S 757 mmHg 51%
    04:00 +31°C° 0 mm 2 m/S 757 mmHg 51%
    05:00 +31°C° 0 mm 2 m/S 757 mmHg 50%
    06:00 +31°C° 0 mm 1 m/S 757 mmHg 49%
    07:00 +32°C° 0 mm 1 m/S 757 mmHg 48%
    08:00 +34°C° 0 mm 1 m/S 758 mmHg 41%
    09:00 +35°C° 0 mm 1 m/S 758 mmHg 35%
    10:00 +37°C° 0 mm 1 m/S 758 mmHg 28%
    11:00 +39°C° 0 mm 2 m/S 758 mmHg 27%
    12:00 +40°C° 0 mm 2 m/S 757 mmHg 26%
    13:00 +42°C° 0 mm 3 m/S 757 mmHg 24%
    14:00 +41°C° 0 mm 4 m/S 756 mmHg 27%
    15:00 +41°C° 0 mm 4 m/S 756 mmHg 31%
    16:00 +40°C° 0 mm 5 m/S 755 mmHg 34%
    17:00 +37°C° 0 mm 5 m/S 756 mmHg 41%
    18:00 +35°C° 0 mm 4 m/S 756 mmHg 47%
    19:00 +33°C° 0 mm 3 m/S 756 mmHg 54%
    20:00 +33°C° 0 mm 3 m/S 757 mmHg 55%
    21:00 +32°C° 0 mm 2 m/S 757 mmHg 56%
    22:00 +32°C° 0 mm 2 m/S 758 mmHg 57%
    23:00 +32°C° 0 mm 2 m/S 758 mmHg 58%

    übermorgen, 24 April, Dienstag

    Zeit Temperatur Niederschläge Wind Luftdruck Luftfeuchtigkeit
    00:00 +31°C° 0 mm 2 m/S 758 mmHg 59%
    01:00 +31°C° 0 mm 2 m/S 758 mmHg 59%
    02:00 +31°C° 0 mm 1 m/S 758 mmHg 61%
    03:00 +31°C° 0 mm 1 m/S 757 mmHg 64%
    04:00 +30°C° 0 mm 1 m/S 757 mmHg 66%
    05:00 +30°C° 0 mm 1 m/S 757 mmHg 64%
    06:00 +31°C° 0 mm 1 m/S 757 mmHg 62%
    07:00 +31°C° 0 mm 1 m/S 758 mmHg 60%
    08:00 +33°C° 0 mm 1 m/S 758 mmHg 51%
    09:00 +35°C° 0 mm 1 m/S 758 mmHg 43%
    10:00 +36°C° 0 mm 1 m/S 759 mmHg 35%
    11:00 +38°C° 0 mm 2 m/S 758 mmHg 33%
    12:00 +39°C° 0 mm 3 m/S 757 mmHg 30%
    13:00 +42°C° 0 mm 3 m/S 757 mmHg 28%
    14:00 +40°C° 0 mm 4 m/S 756 mmHg 35%
    15:00 +39°C° 0 mm 5 m/S 756 mmHg 41%
    16:00 +36°C° 0 mm 5 m/S 756 mmHg 48%
    17:00 +35°C° 0 mm 4 m/S 756 mmHg 51%
    18:00 +34°C° 0 mm 3 m/S 757 mmHg 54%
    19:00 +33°C° 0 mm 3 m/S 757 mmHg 57%
    20:00 +31°C° 0 mm 2 m/S 758 mmHg 58%
    21:00 +31°C° 0 mm 2 m/S 758 mmHg 59%
    22:00 +31°C° 0 mm 1 m/S 759 mmHg 60%
    23:00 +31°C° 0 mm 2 m/S 759 mmHg 61%

    25 April, Mittwoch

    Zeit Temperatur Niederschläge Wind Luftdruck Luftfeuchtigkeit
    00:00 +31°C° 0 mm 2 m/S 759 mmHg 62%
    01:00 +31°C° 0 mm 3 m/S 758 mmHg 64%
    02:00 +30°C° 0 mm 3 m/S 758 mmHg 65%
    03:00 +30°C° 0 mm 3 m/S 758 mmHg 66%
    04:00 +30°C° 0 mm 3 m/S 757 mmHg 67%
    05:00 +30°C° 0 mm 3 m/S 758 mmHg 65%
    06:00 +30°C° 0 mm 3 m/S 758 mmHg 62%
    07:00 +30°C° 0 mm 3 m/S 758 mmHg 59%
    08:00 +33°C° 0 mm 3 m/S 758 mmHg 50%
    09:00 +35°C° 0 mm 3 m/S 758 mmHg 41%
    10:00 +37°C° 0 mm 3 m/S 759 mmHg 32%
    11:00 +38°C° 0 mm 4 m/S 758 mmHg 30%
    12:00 +41°C° 0 mm 4 m/S 757 mmHg 27%
    13:00 +42°C° 0 mm 5 m/S 757 mmHg 24%
    14:00 +41°C° 0 mm 6 m/S 756 mmHg 28%
    15:00 +40°C° 0 mm 7 m/S 756 mmHg 32%
    16:00 +39°C° 0 mm 7 m/S 755 mmHg 36%
    17:00 +38°C° 0 mm 7 m/S 756 mmHg 40%
    18:00 +35°C° 0 mm 7 m/S 756 mmHg 45%
    19:00 +33°C° 0 mm 6 m/S 757 mmHg 49%
    20:00 +33°C° 0 mm 6 m/S 757 mmHg 49%
    21:00 +33°C° 0 mm 5 m/S 758 mmHg 48%
    22:00 +33°C° 0 mm 4 m/S 758 mmHg 48%
    23:00 +32°C° 0 mm 4 m/S 758 mmHg 49%

    26 April, Donnerstag

    Zeit Temperatur Niederschläge Wind Luftdruck Luftfeuchtigkeit
    00:00 +32°C° 0 mm 4 m/S 757 mmHg 50%
    01:00 +32°C° 0 mm 4 m/S 757 mmHg 51%
    02:00 +32°C° 0 mm 4 m/S 757 mmHg 53%
    03:00 +31°C° 0 mm 3 m/S 757 mmHg 54%
    04:00 +30°C° 0 mm 3 m/S 756 mmHg 56%
    05:00 +30°C° 0 mm 3 m/S 757 mmHg 55%
    06:00 +31°C° 0 mm 3 m/S 757 mmHg 54%
    07:00 +31°C° 0 mm 3 m/S 757 mmHg 54%
    08:00 +34°C° 0 mm 2 m/S 757 mmHg 47%
    09:00 +35°C° 0 mm 2 m/S 758 mmHg 40%
    10:00 +37°C° 0 mm 2 m/S 758 mmHg 33%
    11:00 +38°C° 0 mm 3 m/S 757 mmHg 31%
    12:00 +39°C° 0 mm 3 m/S 756 mmHg 29%
    13:00 +41°C° 0 mm 4 m/S 756 mmHg 28%
    14:00 +40°C° 0 mm 5 m/S 755 mmHg 34%
    15:00 +37°C° 0 mm 5 m/S 755 mmHg 41%
    16:00 +36°C° 0 mm 5 m/S 755 mmHg 48%
    17:00 +35°C° 0 mm 5 m/S 755 mmHg 50%
    18:00 +34°C° 0 mm 4 m/S 756 mmHg 53%
    19:00 +33°C° 0 mm 3 m/S 756 mmHg 55%
    20:00 +33°C° 0 mm 3 m/S 757 mmHg 56%
    21:00 +31°C° 0 mm 3 m/S 757 mmHg 56%
    22:00 +31°C° 0 mm 3 m/S 758 mmHg 57%
    23:00 +31°C° 0 mm 2 m/S 758 mmHg 57%

    27 April, Freitag

    Zeit Temperatur Niederschläge Wind Luftdruck Luftfeuchtigkeit
    00:00 +31°C° 0 mm 2 m/S 757 mmHg 58%
    01:00 +31°C° 0 mm 2 m/S 757 mmHg 59%
    02:00 +31°C° 0 mm 2 m/S 757 mmHg 61%
    03:00 +30°C° 0 mm 2 m/S 757 mmHg 62%
    04:00 +30°C° 0 mm 2 m/S 757 mmHg 64%
    05:00 +30°C° 0 mm 2 m/S 757 mmHg 62%
    06:00 +30°C° 0 mm 2 m/S 757 mmHg 61%
    07:00 +31°C° 0 mm 2 m/S 758 mmHg 59%
    08:00 +32°C° 0 mm 2 m/S 758 mmHg 53%
    09:00 +35°C° 0 mm 2 m/S 758 mmHg 46%
    10:00 +36°C° 0 mm 2 m/S 758 mmHg 39%
    11:00 +37°C° 0 mm 3 m/S 757 mmHg 37%
    12:00 +38°C° 0 mm 4 m/S 756 mmHg 34%
    13:00 +40°C° 0 mm 4 m/S 756 mmHg 31%
    14:00 +39°C° 0 mm 5 m/S 755 mmHg 36%
    15:00 +38°C° 0 mm 6 m/S 755 mmHg 41%
    16:00 +36°C° 0 mm 7 m/S 755 mmHg 46%
    17:00 +35°C° 0 mm 6 m/S 755 mmHg 49%
    18:00 +33°C° 0 mm 6 m/S 756 mmHg 52%
    19:00 +32°C° 0 mm 5 m/S 756 mmHg 54%
    20:00 +32°C° 0 mm 5 m/S 757 mmHg 53%
    21:00 +32°C° 0 mm 4 m/S 757 mmHg 51%
    22:00 +31°C° 0 mm 3 m/S 758 mmHg 50%
    23:00 +31°C° 0 mm 3 m/S 757 mmHg 50%
    Mehr zeigen